Home   Weather   Jessore   Past weeks

Flag for Bangladesh Past Weather in Jessore, Bangladesh — Yesterday and Last 2 Weeks

Now
70 °F

Mild.


Feels Like: 70 °F
Forecast: 66 / 84 °F
Wind: No wind

Location: Phrae

Current Time: Dec 4, 2016 at 1:55:04 am

Latest Report: Dec 4, 2016 at 1:00 am


Visibility: N/A

Pressure: 29.98 "Hg

Humidity: 100%

Dew Point: 70 °F

Location of JessoreLocation

Past Weather in Jessore — Graph

°F

Jessore Temperature Yesterday

Maximum temperature yesterday: 88 °F (at 2:00 pm)
Minimum temperature yesterday: 64 °F (at 5:00 am)
Average temperature yesterday: 75 °F

High & Low Weather Summary for the Past Weeks

 TemperatureHumidityPressure
High93 °F (Nov 19, 1:00 pm)100% (Nov 19, 12:00 am)30.09 "Hg (Nov 19, 12:00 am)
Low64 °F (Nov 22, 4:00 am)36% (Nov 22, 1:00 pm)29.71 "Hg (Nov 25, 3:00 pm)
Average77 °F78%29.91 "Hg
* Reported Nov 19 12:00 am — Dec 4 12:00 am, Jessore, Weather by CustomWeather, © 2016

Note: Actual official high and low records may vary slightly from our data, if they occured in-between our weather recording intervals... More about our weather records

Advertising

Jessore Weather History for the Previous 24 Hours

Scroll right to see more
 ConditionsComfort  
Time TempWeatherWind HumidityBarometerVisibility
12:00 am
Sun, Dec 4
70 °FClear.No wind100%30.01 "HgN/A
11:00 pm
Sat, Dec 3
70 °FMild.No wind100%30.01 "HgN/A
10:00 pm72 °FMild.No wind94%30.01 "HgN/A
9:00 pm72 °FMild.No wind94%30.01 "HgN/A
8:00 pm73 °FClear.No wind83%30.01 "HgN/A
7:00 pm73 °FMild.No wind83%29.98 "HgN/A
6:00 pm75 °FMild.1 mph83%29.98 "HgN/A
5:00 pm81 °FWarm.2 mph62%29.95 "HgN/A
4:00 pm84 °FWarm.5 mph51%29.95 "HgN/A
3:00 pm88 °FScattered clouds.No wind49%29.92 "HgN/A
2:00 pm88 °FWarm.3 mph49%29.95 "Hg4 mi
1:00 pm86 °FWarm.2 mph49%29.95 "HgN/A
12:00 pm86 °FWarm.3 mph49%29.98 "HgN/A
10:00 am82 °FPassing clouds.No wind58%30.07 "Hg4 mi
9:00 am77 °FWarm.3 mph69%30.07 "HgN/A
8:00 am73 °FPassing clouds.5 mph78%30.07 "Hg4 mi
6:00 am64 °FFog.No wind100%30.04 "Hg1 mi
5:00 am64 °FClear.No wind100%30.04 "HgN/A
4:00 am66 °FClear.No wind100%30.01 "HgN/A
3:00 am66 °FClear.No wind100%30.01 "HgN/A
2:00 am66 °FMild.No wind100%30.01 "HgN/A
1:00 am66 °FClear.1 mph100%30.01 "HgN/A
Weather by CustomWeather, © 2016

See weather overviewHow to use our weather pages